Orbital Elements at Epoch 2459000.5 (2020-May-31.0) TDB
Reference: JPL 34 (heliocentric ecliptic J2000)
Element | Value | Uncertainty (1-sigma) | Units |
e | .2056290470813766 | 3.3423e-08 | |
a | 2.39755144418496 | 7.3799e-09 | au |
q | 1.904545225388628 | 7.9499e-08 | au |
i | 3.00619953589045 | 3.695e-06 | deg |
node | 141.7773525747111 | 5.9736e-05 | deg |
peri | 216.4859698672954 | 6.0263e-05 | deg |
M | 165.3439274131349 | 7.3191e-06 | deg |
tp | 2458377.717963665251 (2018-Sep-16.21796367) | 2.7485e-05 | TDB |
period | 1355.970773092324 3.71 | 6.2607e-06 1.714e-08 | d yr |
n | .2654924480260082 | 1.2258e-09 | deg/d |
Q | 2.890557662981291 | 8.8974e-09 | au |
|
| | Orbit Determination Parameters
Additional Information
|